Fort Knox, KY

7:14 PM EDT on April 28, 2017 (GMT -0400)
Godman Army Air Field

Weather History for KFTK - December, 2012

Change the Weather History Date:

Monday, December 3, 2012

  Actual Average Record
Temperature  
Mean Temperature 66 °F -  
Max Temperature 72 °F 47 °F 73 °F (1998)
Min Temperature 60 °F 31 °F 19 °F (2006)
Cooling Degree Days 1    
Growing Degree Days 16 (Base 50)    
Moisture  
Dew Point 54 °F    
Average Humidity 69    
Maximum Humidity 81    
Minimum Humidity 55    
Precipitation  
Precipitation 0.00 in - - ()
Sea Level Pressure  
Sea Level Pressure 30.12 in    
Wind  
Wind Speed 11 mph (South)    
Max Wind Speed 14 mph    
Max Gust Speed 21 mph    
Visibility 10 miles    
Events      
Averages and records for this station are not official NWS values.
T = Trace of Precipitation, MM = Missing Value Source: NWS Daily Summary

Daily Weather History Graph

Daily Weather History Graph

Search for Another Location

Airport or City:

Trip Planner

Search our weather history database for the weather conditions in past years. The results will help you decide how hot, cold, wet, or windy it might be!

Date:

Astronomy

Dec. 03, 2012 Rise Set
Actual Time 7:43 AM EST 5:24 PM EST
Civil Twilight 7:14 AM EST 5:53 PM EST
Nautical Twilight 6:41 AM EST 6:26 PM EST
Astronomical Twilight 6:09 AM EST 6:58 PM EST
Moon 10:07 PM EST (12/3) 11:08 AM EST (12/3)
Length of Visible Light 10h 39m
Length of Day
9h 41m
Waning Gibbous, 78% of the Moon is Illuminated
Dec 3
Waning Gibbous
Dec 6
Last Quarter
Dec 13
New
Dec 20
First Quarter
Dec 28
Full

Hourly Weather History & Observations

Time (EST) Temp. Dew Point Humidity Pressure Visibility Wind Dir Wind Speed Gust Speed Precip Events Conditions
12:55 AM 62.4 °F 56.7 °F 81% 30.15 in 10.0 mi SSW 9.2 mph - N/A   Overcast
1:55 AM 61.9 °F 55.4 °F 79% 30.15 in 10.0 mi SSW 8.1 mph - 0.00 in   Overcast
2:55 AM 62.4 °F 54.7 °F 76% 30.14 in 10.0 mi SSW 12.7 mph - N/A   Overcast
3:55 AM 62.1 °F 54.3 °F 76% 30.14 in 10.0 mi South 10.4 mph - N/A   Mostly Cloudy
4:55 AM 62.2 °F 54.3 °F 75% 30.14 in 10.0 mi South 10.4 mph - N/A   Overcast
5:55 AM 62.1 °F 54.3 °F 76% 30.14 in 10.0 mi SSW 10.4 mph - N/A   Mostly Cloudy
6:55 AM 61.3 °F 54.0 °F 77% 30.15 in 10.0 mi SSW 12.7 mph - N/A   Mostly Cloudy
7:55 AM 60.6 °F 53.4 °F 77% 30.16 in 10.0 mi South 10.4 mph - N/A   Scattered Clouds
8:55 AM 61.7 °F 53.4 °F 74% 30.16 in 10.0 mi SSW 13.8 mph 19.6 mph N/A   Clear
9:55 AM 63.1 °F 53.6 °F 71% 30.17 in 10.0 mi South 12.7 mph - N/A   Mostly Cloudy
10:55 AM 67.1 °F 55.0 °F 65% 30.17 in 10.0 mi South 11.5 mph - N/A   Mostly Cloudy
11:55 AM 70.2 °F 56.1 °F 61% 30.14 in 10.0 mi South 12.7 mph - N/A   Scattered Clouds
12:55 PM 69.8 °F 55.9 °F 61% 30.12 in 10.0 mi SSW 12.7 mph - N/A   Scattered Clouds
1:55 PM 72.1 °F 55.6 °F 56% 30.10 in 10.0 mi SSW 11.5 mph 20.7 mph N/A   Partly Cloudy
2:55 PM 72.7 °F 55.8 °F 55% 30.09 in 10.0 mi South 13.8 mph - N/A   Partly Cloudy
3:55 PM 71.8 °F 55.2 °F 56% 30.07 in 10.0 mi South 10.4 mph - N/A   Clear
4:55 PM 68.9 °F 54.1 °F 59% 30.09 in 10.0 mi South 9.2 mph - N/A   Clear
5:55 PM 65.7 °F 53.2 °F 64% 30.10 in 10.0 mi South 8.1 mph - N/A   Clear
6:55 PM 64.2 °F 52.7 °F 66% 30.10 in 10.0 mi South 10.4 mph - N/A   Clear
7:55 PM 64.0 °F 52.7 °F 67% 30.09 in 10.0 mi South 12.7 mph - N/A   Clear
8:55 PM 63.5 °F 51.8 °F 66% 30.09 in 10.0 mi South 12.7 mph - N/A   Clear
9:55 PM 61.5 °F 51.1 °F 69% 30.10 in 10.0 mi South 10.4 mph - N/A   Clear
10:55 PM 61.0 °F 50.5 °F 68% 30.10 in 10.0 mi South 10.4 mph - N/A   Overcast
11:55 PM 60.4 °F 50.4 °F 69% 30.10 in 10.0 mi South 8.1 mph - N/A   Overcast